SQ9CIE-4 Weather Reports


time (UTC)temp
C
wind
direction
speed
KPH
gust
KPH
rain 1hr
cm
rain 24hr
cm
rain mn
cm
humidity
%
barometer
mb
20260507150055 16 119 8.0 14.5 0.00 0.00 0.00 80 1010.3
20260507145555 16 122 9.7 17.7 0.00 0.00 0.00 82 1010.3
20260507145055 17 109 1.6 11.3 0.00 0.00 0.00 82 1010.2
20260507144555 16 115 4.8 11.3 0.00 0.00 0.00 80 1010.2
20260507144055 16 76 8.0 14.5 0.00 0.00 0.00 77 1010.4
20260507143555 16 116 6.4 11.3 0.00 0.00 0.00 78 1010.5
20260507143055 16 130 8.0 14.5 0.00 0.00 0.00 78 1010.4
20260507142555 16 104 8.0 11.3 0.00 0.00 0.00 77 1010.4
20260507142055 16 149 12.9 20.9 0.00 0.00 0.00 78 1010.5
20260507141555 16 112 4.8 8.0 0.00 0.00 0.00 80 1010.5
20260507141055 17 92 12.9 17.7 0.00 0.00 0.00 77 1010.5
20260507140555 17 93 8.0 14.5 0.00 0.00 0.00 75 1010.3
20260507140055 17 84 9.7 17.7 0.00 0.00 0.00 70 1010.1
20260507135555 17 119 3.2 14.5 0.00 0.00 0.00 69 1010.3
20260507135055 17 116 9.7 14.5 0.00 0.00 0.00 66 1010.0
20260507134555 17 118 8.0 11.3 0.00 0.00 0.00 64 1010.3
20260507134055 17 114 8.0 17.7 0.00 0.00 0.00 64 1010.3
20260507133555 17 132 9.7 14.5 0.00 0.00 0.00 63 1010.1
20260507133055 18 95 12.9 14.5 0.00 0.00 0.00 61 1009.9
20260507132555 18 118 0.0 3.2 0.00 0.00 0.00 60 1010.1
20260507132055 18 118 3.2 6.4 0.00 0.00 0.00 59 1010.0
20260507131555 18 118 6.4 6.4 0.00 0.00 0.00 59 1009.7
20260507131055 20 209 0.0 6.4 0.00 0.00 0.00 58 1009.8
20260507130555 20 209 1.6 11.3 0.00 0.00 0.00 58 1010.0
20260507130055 20 210 0.0 3.2 0.00 0.00 0.00 58 1010.0
20260507125555 18 210 3.2 8.0 0.00 0.00 0.00 60 1010.0
20260507125055 18 207 4.8 8.0 0.00 0.00 0.00 60 1010.1
20260507124555 18 207 0.0 3.2 0.00 0.00 0.00 60 1010.7
20260507124055 18 207 6.4 11.3 0.00 0.00 0.00 60 1010.2
20260507123555 18 240 6.4 8.0 0.00 0.00 0.00 60 1010.2
20260507123055 18 267 3.2 6.4 0.00 0.00 0.00 60 1010.2
20260507122555 18 267 4.8 11.3 0.00 0.00 0.00 60 1010.2
20260507122055 18 252 9.7 11.3 0.00 0.00 0.00 60 1010.0
20260507121555 18 315 1.6 3.2 0.00 0.00 0.00 60 1010.1
20260507121055 18 315 6.4 8.0 0.00 0.00 0.00 60 1010.1
20260507120555 18 289 14.5 17.7 0.00 0.00 0.00 60 1010.3
20260507120055 18 289 4.8 11.3 0.00 0.00 0.00 60 1010.2
20260507115555 18 276 17.7 20.9 0.00 0.00 0.00 59 1010.2
20260507115055 18 268 8.0 8.0 0.00 0.00 0.00 59 1010.0
20260507114555 18 260 6.4 17.7 0.00 0.00 0.00 60 1010.0
20260507114055 18 241 11.3 11.3 0.00 0.00 0.00 61 1010.2
20260507113555 18 282 0.0 8.0 0.00 0.00 0.00 61 1010.1
20260507113055 18 320 8.0 17.7 0.00 0.00 0.00 62 1010.1
20260507112555 17 286 11.3 14.5 0.00 0.00 0.00 62 1010.2
20260507112055 17 263 14.5 17.7 0.00 0.00 0.00 63 1010.4
20260507111555 17 241 8.0 11.3 0.00 0.00 0.00 64 1010.5
20260507111055 17 273 8.0 17.7 0.00 0.00 0.00 64 1010.4
20260507110555 17 235 11.3 14.5 0.00 0.00 0.00 65 1010.3
20260507110055 17 260 6.4 11.3 0.00 0.00 0.00 65 1010.5
20260507105555 17 248 9.7 14.5 0.00 0.00 0.00 65 1010.2
20260507105055 17 246 8.0 11.3 0.00 0.00 0.00 65 1010.4
20260507104555 17 218 0.0 14.5 0.00 0.00 0.00 64 1010.2
20260507104055 17 259 9.7 17.7 0.00 0.00 0.00 65 1010.4
20260507103555 17 271 11.3 14.5 0.00 0.00 0.00 67 1010.4
20260507103055 17 266 17.7 27.4 0.00 0.00 0.00 66 1010.4
20260507102555 17 274 11.3 17.7 0.00 0.00 0.00 66 1010.3
20260507102055 17 225 19.3 29.0 0.00 0.00 0.00 65 1010.1
20260507101555 17 233 11.3 24.1 0.00 0.00 0.00 65 1010.0
20260507101055 17 215 16.1 20.9 0.00 0.00 0.00 64 1010.1
20260507100555 17 276 12.9 14.5 0.00 0.00 0.00 64 1010.0
20260507100055 17 206 14.5 27.4 0.00 0.00 0.00 66 1010.1
20260507095555 17 227 17.7 27.4 0.00 0.00 0.00 66 1010.0
20260507095055 17 263 14.5 27.4 0.00 0.00 0.00 66 1010.0
20260507094555 17 239 12.9 20.9 0.00 0.00 0.00 64 1009.7
20260507094055 17 262 14.5 24.1 0.00 0.00 0.00 68 1010.0
20260507093555 17 231 12.9 35.4 0.00 0.00 0.00 69 1010.1
20260507093055 17 272 16.1 27.4 0.00 0.00 0.00 70 1009.9
20260507092555 17 286 16.1 24.1 0.00 0.00 0.00 71 1009.8
20260507092055 17 273 22.5 29.0 0.00 0.00 0.00 71 1009.9
20260507091555 17 206 14.5 32.2 0.00 0.00 0.00 72 1009.7
20260507091055 17 283 25.7 32.2 0.00 0.00 0.00 71 1009.7
20260507090555 17 264 9.7 17.7 0.00 0.00 0.00 72 1009.6
20260507090055 17 246 17.7 20.9 0.00 0.00 0.00 72 1009.5
20260507085555 17 237 19.3 35.4 0.00 0.00 0.00 71 1009.4
20260507085059 17 271 20.9 27.4 0.00 0.00 0.00 72 1009.3
20260507084559 17 280 19.3 27.4 0.00 0.00 0.00 72 1009.4
20260507084059 17 226 16.1 32.2 0.00 0.00 0.00 73 1009.3
20260507083559 17 232 14.5 24.1 0.00 0.00 0.00 73 1009.2
20260507083059 17 298 12.9 27.4 0.00 0.00 0.00 73 1009.2
20260507082559 17 232 14.5 27.4 0.00 0.00 0.00 73 1009.2
20260507082059 17 270 9.7 24.1 0.00 0.00 0.00 73 1009.2
20260507081559 17 248 12.9 29.0 0.00 0.00 0.00 73 1008.9
20260507081059 17 221 19.3 35.4 0.00 0.00 0.00 73 1009.0
20260507080559 17 259 6.4 35.4 0.00 0.00 0.00 73 1009.0
20260507080059 17 230 16.1 32.2 0.00 0.00 0.00 72 1008.8
20260507075559 17 208 17.7 32.2 0.00 0.00 0.00 71 1008.8
20260507075059 17 236 16.1 32.2 0.00 0.00 0.00 72 1008.5
20260507074559 17 230 19.3 35.4 0.00 0.00 0.00 72 1008.5
20260507074059 17 141 22.5 45.1 0.00 0.00 0.00 72 1008.8
20260507073559 17 233 12.9 24.1 0.00 0.00 0.00 72 1008.6
20260507073059 16 230 14.5 20.9 0.00 0.00 0.00 72 1008.5
20260507072559 16 236 17.7 35.4 0.00 0.00 0.00 74 1008.5
20260507072059 16 215 33.8 41.8 0.00 0.00 0.00 73 1008.6
20260507071559 16 231 27.4 35.4 0.00 0.00 0.00 73 1008.5
20260507071059 16 250 12.9 29.0 0.00 0.00 0.00 74 1008.5
20260507070559 16 219 16.1 29.0 0.00 0.00 0.00 74 1008.6
20260507070059 16 236 14.5 20.9 0.00 0.00 0.00 74 1008.6
20260507065559 16 229 9.7 29.0 0.00 0.00 0.00 75 1008.7
20260507065059 15 205 9.7 27.4 0.00 0.00 0.00 75 1008.7
20260507064559 15 223 19.3 41.8 0.00 0.00 0.00 75 1008.6
20260507064059 15 204 16.1 29.0 0.00 0.00 0.00 75 1008.6
20260507063559 16 220 12.9 20.9 0.00 0.00 0.00 75 1008.5
20260507063059 16 224 19.3 29.0 0.00 0.00 0.00 74 1008.4
20260507062559 16 232 12.9 24.1 0.00 0.00 0.00 74 1008.4
20260507062059 15 268 19.3 27.4 0.00 0.00 0.00 74 1008.5
20260507061559 15 263 9.7 17.7 0.00 0.00 0.00 75 1008.3
20260507061059 15 211 12.9 20.9 0.00 0.00 0.00 75 1008.4
20260507060559 15 244 4.8 6.4 0.00 0.00 0.00 74 1008.5
20260507060059 15 246 1.6 6.4 0.00 0.00 0.00 74 1008.1
20260507055559 15 246 3.2 6.4 0.00 0.00 0.00 73 1008.1
20260507055059 15 246 4.8 6.4 0.00 0.00 0.00 73 1008.1
20260507054559 15 240 6.4 8.0 0.00 0.00 0.00 73 1008.2
20260507054059 15 241 3.2 6.4 0.00 0.00 0.00 73 1008.0
20260507053559 15 254 6.4 6.4 0.00 0.00 0.00 73 1008.1
20260507053059 15 267 6.4 8.0 0.00 0.00 0.00 73 1008.3
20260507052559 15 229 1.6 6.4 0.00 0.00 0.00 73 1008.1
20260507052059 15 229 3.2 6.4 0.00 0.00 0.00 73 1007.9
20260507051559 15 229 4.8 6.4 0.00 0.00 0.00 73 1007.8
20260507051059 15 229 0.0 3.2 0.00 0.00 0.00 73 1008.0
20260507050559 15 229 1.6 3.2 0.00 0.00 0.00 73 1007.9
20260507050059 15 229 1.6 3.2 0.00 0.00 0.00 73 1007.8
20260507045559 15 229 0.0 0.0 0.00 0.00 0.00 73 1007.8
20260507045059 15 229 0.0 0.0 0.00 0.00 0.00 73 1007.7
20260507044559 15 229 0.0 3.2 0.00 0.00 0.00 73 1007.6
20260507044059 15 229 3.2 6.4 0.00 0.00 0.00 73 1007.6
20260507043559 15 229 3.2 6.4 0.00 0.00 0.00 73 1007.7
20260507043059 15 229 1.6 8.0 0.00 0.00 0.00 72 1007.6
20260507042559 15 229 3.2 6.4 0.00 0.00 0.00 71 1007.6
20260507042059 15 229 3.2 6.4 0.00 0.00 0.00 71 1007.3
20260507041559 15 229 0.0 0.0 0.00 0.00 0.00 71 1007.3
20260507041059 15 229 0.0 0.0 0.00 0.00 0.00 72 1007.5
20260507040059 15 229 0.0 0.0 0.00 0.00 0.00 72 1007.4
20260507035559 15 229 0.0 0.0 0.00 0.00 0.00 71 1007.1
20260507035059 15 229 0.0 0.0 0.00 0.00 0.00 71 1007.1
20260507034559 15 229 0.0 0.0 0.00 0.00 0.00 71 1007.2
20260507034059 15 229 3.2 8.0 0.00 0.00 0.00 71 1006.8
20260507033559 15 229 3.2 6.4 0.00 0.00 0.00 71 1006.9
20260507033059 15 229 3.2 6.4 0.00 0.00 0.00 71 1006.9
20260507032559 15 229 1.6 3.2 0.00 0.00 0.00 71 1006.6
20260507032059 15 229 0.0 3.2 0.00 0.00 0.00 71 1006.9
20260507031559 15 229 0.0 3.2 0.00 0.00 0.00 71 1006.6
20260507031059 15 229 0.0 0.0 0.00 0.00 0.00 71 1006.9
20260507030559 15 229 0.0 3.2 0.00 0.00 0.00 71 1006.8
20260507030059 15 229 0.0 3.2 0.00 0.00 0.00 71 1006.8
20260507025559 15 229 0.0 0.0 0.00 0.00 0.00 71 1006.9
20260507025059 15 229 0.0 3.2 0.00 0.00 0.00 71 1006.8
20260507024559 15 229 0.0 0.0 0.00 0.00 0.00 71 1006.9
20260507024059 15 229 0.0 3.2 0.00 0.00 0.00 71 1006.8
20260507023559 15 229 1.6 3.2 0.00 0.00 0.00 71 1006.7
20260507023059 15 229 0.0 0.0 0.00 0.00 0.00 71 1006.8
20260507022559 15 229 3.2 3.2 0.00 0.00 0.00 72 1006.6
20260507022059 13 229 3.2 3.2 0.00 0.00 0.00 73 1006.6
20260507021559 13 229 0.0 0.0 0.00 0.00 0.00 73 1006.6
20260507021059 15 229 0.0 0.0 0.00 0.00 0.00 72 1006.5
20260507020559 15 229 0.0 3.2 0.00 0.00 0.00 71 1006.4
20260507020059 15 229 0.0 0.0 0.00 0.00 0.00 70 1006.3
20260507015559 15 229 3.2 6.4 0.00 0.00 0.00 70 1006.5
20260507015059 15 229 4.8 8.0 0.00 0.00 0.00 69 1006.2
20260507014559 15 244 3.2 6.4 0.00 0.00 0.00 69 1006.5
20260507014059 16 243 6.4 8.0 0.00 0.00 0.00 69 1006.2
20260507013559 16 249 3.2 6.4 0.00 0.00 0.00 69 1006.4
20260507013059 16 239 3.2 6.4 0.00 0.00 0.00 69 1006.3
20260507012559 16 239 1.6 6.4 0.00 0.00 0.00 68 1006.2
20260507012059 16 239 3.2 6.4 0.00 0.00 0.00 68 1006.2
20260507011559 15 239 3.2 8.0 0.00 0.00 0.00 69 1006.1
20260507011059 15 237 6.4 8.0 0.00 0.00 0.00 69 1006.4
20260507010559 15 238 8.0 8.0 0.00 0.00 0.00 70 1006.3
20260507010059 15 332 1.6 6.4 0.00 0.00 0.00 70 1006.4
20260507005559 15 332 0.0 0.0 0.00 0.00 0.00 69 1006.3
20260507005059 16 332 0.0 3.2 0.00 0.00 0.00 68 1006.3
20260507004559 16 332 1.6 6.4 0.00 0.00 0.00 68 1005.9
20260507004059 15 332 0.0 6.4 0.00 0.00 0.00 69 1006.1
20260507003559 15 332 1.6 3.2 0.00 0.00 0.00 69 1006.3
20260507003059 15 332 0.0 3.2 0.00 0.00 0.00 69 1006.3
20260507002559 15 332 1.6 3.2 0.00 0.00 0.00 69 1006.2
20260507002059 15 332 1.6 6.4 0.00 0.00 0.00 69 1006.3
20260507001559 15 284 0.0 3.2 0.00 0.00 0.00 69 1006.4
20260507001059 15 284 4.8 6.4 0.00 0.00 0.00 69 1006.4
20260507000559 15 221 4.8 6.4 0.00 0.00 0.00 68 1006.2
20260507000059 16 221 0.0 0.0 0.00 0.00 0.00 67 1006.3
20260506235559 16 221 0.0 0.0 0.00 0.00 0.00 67 1006.4
20260506235059 16 221 0.0 3.2 0.00 0.00 0.00 68 1006.3
20260506234559 16 221 1.6 6.4 0.00 0.00 0.00 67 1006.3
20260506234059 16 220 4.8 11.3 0.00 0.00 0.00 66 1006.3
20260506233559 16 224 3.2 8.0 0.00 0.00 0.00 67 1006.4
20260506233059 16 215 3.2 8.0 0.00 0.00 0.00 67 1006.4
20260506232559 16 206 3.2 8.0 0.00 0.00 0.00 67 1006.3
20260506232059 16 157 3.2 8.0 0.00 0.00 0.00 66 1006.4
20260506231559 16 155 6.4 11.3 0.00 0.00 0.00 66 1006.4
20260506231059 16 189 9.7 11.3 0.00 0.00 0.00 67 1006.4
20260506230559 16 167 4.8 6.4 0.00 0.00 0.00 67 1006.5
20260506230059 15 160 0.0 0.0 0.00 0.00 0.00 67 1006.6
20260506225559 16 160 0.0 0.0 0.00 0.00 0.00 67 1006.4
20260506225059 16 168 6.4 8.0 0.00 0.00 0.00 66 1006.3
20260506224559 16 151 0.0 0.0 0.00 0.00 0.00 65 1006.5
20260506224059 16 151 3.2 6.4 0.00 0.00 0.00 64 1006.1
20260506223559 16 151 6.4 8.0 0.00 0.00 0.00 64 1006.3
20260506223059 16 110 0.0 3.2 0.00 0.00 0.00 65 1006.2
20260506222559 16 110 1.6 3.2 0.00 0.00 0.00 66 1006.3
20260506222059 15 110 0.0 3.2 0.00 0.00 0.00 68 1006.4
20260506221559 16 110 6.4 8.0 0.00 0.00 0.00 67 1006.3
20260506221059 16 130 1.6 3.2 0.00 0.00 0.00 67 1006.2
20260506220559 16 139 0.0 0.0 0.00 0.00 0.00 65 1006.3
20260506220059 16 139 0.0 0.0 0.00 0.00 0.00 65 1006.3
20260506215559 16 139 1.6 6.4 0.00 0.00 0.00 65 1006.3
20260506215059 16 139 3.2 8.0 0.00 0.00 0.00 65 1006.2
20260506214559 16 108 4.8 6.4 0.00 0.00 0.00 64 1006.3
20260506214059 17 108 3.2 6.4 0.00 0.00 0.00 64 1006.4
20260506213559 17 108 3.2 6.4 0.00 0.00 0.00 63 1006.4
20260506213059 17 107 4.8 6.4 0.00 0.00 0.00 63 1006.2
20260506212559 17 114 0.0 3.2 0.00 0.00 0.00 63 1006.1
20260506212059 17 114 3.2 6.4 0.00 0.00 0.00 63 1006.5
20260506211559 17 114 0.0 3.2 0.00 0.00 0.00 63 1006.3
20260506211059 17 114 1.6 6.4 0.00 0.00 0.00 63 1006.2
20260506210559 17 114 1.6 8.0 0.00 0.00 0.00 62 1006.1
20260506210059 17 115 6.4 11.3 0.00 0.00 0.00 62 1006.0
20260506205559 17 95 8.0 8.0 0.00 0.00 0.00 63 1006.1
20260506205059 17 94 3.2 6.4 0.00 0.00 0.00 63 1006.1
20260506204559 17 94 6.4 8.0 0.00 0.00 0.00 63 1006.0
20260506204059 17 94 8.0 8.0 0.00 0.00 0.00 63 1006.2
20260506203559 17 83 6.4 6.4 0.00 0.00 0.00 64 1006.3
20260506203059 17 83 4.8 6.4 0.00 0.00 0.00 64 1006.1
20260506202559 17 83 6.4 8.0 0.00 0.00 0.00 63 1006.0
20260506202059 17 135 6.4 8.0 0.00 0.00 0.00 63 1006.1
20260506201559 17 135 1.6 6.4 0.00 0.00 0.00 63 1006.2
20260506201059 17 135 4.8 6.4 0.00 0.00 0.00 63 1006.1
20260506200559 17 135 3.2 3.2 0.00 0.00 0.00 62 1006.0
20260506200059 17 135 3.2 6.4 0.00 0.00 0.00 61 1006.1
20260506195559 17 136 6.4 8.0 0.00 0.00 0.00 60 1006.1
20260506195059 17 228 0.0 0.0 0.00 0.00 0.00 59 1005.7
20260506194559 17 228 0.0 0.0 0.00 0.00 0.00 59 1006.1
20260506194059 17 228 1.6 3.2 0.00 0.00 0.00 59 1005.7
20260506193559 17 228 0.0 0.0 0.00 0.00 0.00 58 1005.8
20260506193059 17 228 1.6 3.2 0.00 0.00 0.00 57 1005.8
20260506192559 17 228 1.6 3.2 0.00 0.00 0.00 57 1005.7
20260506192059 17 228 3.2 3.2 0.00 0.00 0.00 56 1005.9
20260506191559 17 228 0.0 3.2 0.00 0.00 0.00 56 1005.8
20260506191059 17 228 1.6 3.2 0.00 0.00 0.00 55 1005.8
20260506190559 17 228 0.0 0.0 0.00 0.00 0.00 54 1005.8
20260506190059 17 240 0.0 0.0 0.00 0.00 0.00 54 1005.6
20260506185559 17 240 0.0 0.0 0.00 0.00 0.00 54 1005.6
20260506185059 17 244 3.2 3.2 0.00 0.00 0.00 53 1005.6
20260506184559 17 240 0.0 0.0 0.00 0.00 0.00 53 1005.3
20260506184059 18 244 0.0 3.2 0.00 0.00 0.00 52 1005.3
20260506183559 18 246 0.0 3.2 0.00 0.00 0.00 52 1005.3
20260506183059 18 246 0.0 0.0 0.00 0.00 0.00 51 1005.3
20260506182559 18 247 0.0 0.0 0.00 0.00 0.00 51 1005.2
20260506182059 18 247 1.6 3.2 0.00 0.00 0.00 51 1005.1
20260506181559 18 246 1.6 3.2 0.00 0.00 0.00 51 1005.3
20260506181059 18 247 3.2 3.2 0.00 0.00 0.00 52 1004.8
20260506180559 20 247 0.0 3.2 0.00 0.00 0.00 52 1005.0
20260506180059 20 240 1.6 3.2 0.00 0.00 0.00 52 1004.8
20260506175559 20 247 1.6 6.4 0.00 0.00 0.00 51 1004.6
20260506175059 20 247 0.0 0.0 0.00 0.00 0.00 50 1004.7
20260506174559 21 247 0.0 0.0 0.00 0.00 0.00 47 1004.8
20260506174059 20 247 0.0 0.0 0.00 0.00 0.00 46 1004.8
20260506173559 20 247 0.0 0.0 0.00 0.00 0.00 48 1005.0
20260506173059 20 247 0.0 0.0 0.00 0.00 0.00 46 1005.0
20260506172559 20 247 0.0 0.0 0.00 0.00 0.00 48 1005.1
20260506172059 20 247 0.0 0.0 0.00 0.00 0.00 47 1004.9
20260506171559 20 247 0.0 0.0 0.00 0.00 0.00 47 1005.0
20260506171059 20 247 0.0 0.0 0.00 0.00 0.00 47 1004.9
20260506170559 21 246 0.0 0.0 0.00 0.00 0.00 46 1005.0
20260506170059 21 247 0.0 3.2 0.00 0.00 0.00 45 1004.7
20260506165559 21 247 3.2 6.4 0.00 0.00 0.00 45 1004.7
20260506165059 21 248 1.6 8.0 0.00 0.00 0.00 44 1004.7
20260506164559 21 243 3.2 11.3 0.00 0.00 0.00 44 1004.8
20260506164059 21 236 9.7 17.7 0.00 0.00 0.00 43 1004.8
20260506163559 21 246 14.5 14.5 0.00 0.00 0.00 44 1004.7
20260506163059 22 272 14.5 20.9 0.00 0.00 0.00 44 1004.6
20260506162559 22 264 8.0 14.5 0.00 0.00 0.00 44 1004.6
20260506162059 22 244 9.7 20.9 0.00 0.00 0.00 44 1004.6
20260506161559 22 274 8.0 17.7 0.00 0.00 0.00 46 1004.7
20260506161059 22 295 12.9 24.1 0.00 0.00 0.00 46 1004.6
20260506160559 22 246 16.1 20.9 0.00 0.00 0.00 45 1004.7
20260506160059 22 268 17.7 24.1 0.00 0.00 0.00 43 1004.6
20260506155559 22 234 6.4 17.7 0.00 0.00 0.00 43 1004.4
20260506155059 22 251 14.5 17.7 0.00 0.00 0.00 43 1004.5
20260506154559 22 253 9.7 24.1 0.00 0.00 0.00 43 1004.6
20260506154059 22 230 6.4 14.5 0.00 0.00 0.00 43 1004.6
20260506153559 22 237 17.7 24.1 0.00 0.00 0.00 41 1004.7
20260506153059 22 244 12.9 20.9 0.00 0.00 0.00 41 1004.5
20260506152559 23 209 16.1 24.1 0.00 0.00 0.00 42 1004.5
20260506152059 23 189 19.3 24.1 0.00 0.00 0.00 40 1004.4
20260506151559 23 180 14.5 17.7 0.00 0.00 0.00 39 1004.3
20260506151059 23 294 6.4 17.7 0.00 0.00 0.00 38 1004.5
20260506150559 23 244 14.5 27.4 0.00 0.00 0.00 41 1004.5